,,,PA_Meas_PMT16A,,PR_Meas_QMR101_102,,RH_Meas_QMH101,,SR_Meas_QMS101,,TA_Meas_QMH101,,GenWind,,GenWind,
date,time,status,PA,status,PR,status,RH,status,SR,status,TA,status,DirAvg,status,SpdAvg,
2008-03-28, 00:00:04,VALID,1004.54,VALID,0,VALID,94.5447,VALID,0,VALID,23.8221,VALID,41,VALID,0,
2008-03-28, 00:01:04,VALID,1004.56,VALID,0,VALID,94.5295,VALID,0,VALID,23.8045,VALID,41,VALID,0,
2008-03-28, 00:02:04,VALID,1004.55,VALID,0,VALID,94.56,VALID,0,VALID,23.8027,VALID,41,VALID,0,
2008-03-28, 00:03:04,VALID,1004.51,VALID,0,VALID,94.4455,VALID,0,VALID,23.8221,VALID,41,VALID,0.127734,
2008-03-28, 00:04:04,VALID,1004.53,VALID,0,VALID,94.4303,VALID,0,VALID,23.8221,VALID,41,VALID,0.0148437,
2008-03-28, 00:05:04,VALID,1004.51,VALID,0,VALID,94.3616,VALID,0,VALID,23.8221,VALID,41,VALID,0,
2008-03-28, 00:06:04,VALID,1004.53,VALID,0,VALID,94.3006,VALID,0,VALID,23.8434,VALID,41,VALID,0,
2008-03-28, 00:07:04,VALID,1004.52,VALID,0,VALID,94.2472,VALID,0,VALID,23.8221,VALID,41,VALID,0,
2008-03-28, 00:08:04,VALID,1004.53,VALID,0,VALID,94.1709,VALID,0,VALID,23.8611,VALID,41,VALID,0,
2008-03-28, 00:09:04,VALID,1004.5,VALID,0,VALID,94.1709,VALID,0,VALID,23.8805,VALID,41,VALID,0,
2008-03-28, 00:10:04,VALID,1004.5,VALID,0,VALID,94.0717,VALID,0,VALID,23.8805,VALID,41,VALID,0,
2008-03-28, 00:11:04,VALID,1004.5,VALID,0,VALID,93.9954,VALID,0,VALID,23.9213,VALID,41,VALID,0,
2008-03-28, 00:12:04,VALID,1004.49,VALID,0,VALID,94.0336,VALID,0,VALID,23.9,VALID,41,VALID,0,
2008-03-28, 00:13:04,VALID,1004.47,VALID,0,VALID,94.0107,VALID,0,VALID,23.9,VALID,41,VALID,0,
2008-03-28, 00:14:04,VALID,1004.47,VALID,0,VALID,94.0565,VALID,0,VALID,23.9,VALID,41,VALID,0,
2008-03-28, 00:15:04,VALID,1004.42,VALID,0,VALID,94.148,VALID,0,VALID,23.8805,VALID,41,VALID,0,
2008-03-28, 00:16:04,VALID,1004.41,VALID,0,VALID,94.2014,VALID,0,VALID,23.9213,VALID,41,VALID,0,
2008-03-28, 00:17:04,VALID,1004.4,VALID,0,VALID,94.2014,VALID,0,VALID,23.8805,VALID,41,VALID,0,
2008-03-28, 00:18:04,VALID,1004.4,VALID,0,VALID,94.2243,VALID,0,VALID,23.8611,VALID,41,VALID,0.298438,
2008-03-28, 00:19:04,VALID,1004.39,VALID,0,VALID,94.2548,VALID,0,VALID,23.8416,VALID,25,VALID,0.406641,
2008-03-28, 00:20:04,VALID,1004.41,VALID,0,VALID,94.209,VALID,0,VALID,23.8221,VALID,356,VALID,0.347656,
2008-03-28, 00:21:04,VALID,1004.38,VALID,0,VALID,94.2243,VALID,0,VALID,23.8239,VALID,356,VALID,0.359375,
2008-03-28, 00:22:04,VALID,1004.39,VALID,0,VALID,94.3387,VALID,0,VALID,23.8027,VALID,356,VALID,0.383594,
2008-03-28, 00:23:04,VALID,1004.36,VALID,0,VALID,94.3311,VALID,0,VALID,23.7832,VALID,356,VALID,0.403906,
2008-03-28, 00:24:04,VALID,1004.37,VALID,0,VALID,94.3311,VALID,0,VALID,23.7832,VALID,355,VALID,0.527344,
2008-03-28, 00:25:04,VALID,1004.39,VALID,0,VALID,94.3616,VALID,0,VALID,23.7637,VALID,355,VALID,0.379687,
2008-03-28, 00:26:04,VALID,1004.38,VALID,0,VALID,94.415,VALID,0,VALID,23.7443,VALID,355,VALID,0.294922,
2008-03-28, 00:27:04,VALID,1004.35,VALID,0,VALID,94.4761,VALID,0,VALID,23.7637,VALID,349,VALID,0.407422,
2008-03-28, 00:28:04,VALID,1004.36,VALID,0,VALID,94.4074,VALID,0,VALID,23.8239,VALID,349,VALID,0.267969,
2008-03-28, 00:29:04,VALID,1004.35,VALID,0,VALID,94.2014,VALID,0,VALID,23.8027,VALID,350,VALID,0.403516,
2008-03-28, 00:30:04,VALID,1004.3,VALID,0,VALID,93.8505,VALID,0.100563,VALID,23.9,VALID,38,VALID,0.833984,
2008-03-28, 00:31:04,VALID,1004.3,VALID,0,VALID,93.3546,VALID,0,VALID,24.0363,VALID,344,VALID,0.264062,
2008-03-28, 00:32:04,VALID,1004.28,VALID,0,VALID,92.729,VALID,0,VALID,24.0947,VALID,360,VALID,0.392969,
2008-03-28, 00:33:04,VALID,1004.32,VALID,0,VALID,92.2789,VALID,0,VALID,24.2115,VALID,16,VALID,1.07578,
2008-03-28, 00:34:04,VALID,1004.29,VALID,0,VALID,91.5771,VALID,0,VALID,24.3673,VALID,15,VALID,0.564844,
2008-03-28, 00:35:04,VALID,1004.31,VALID,0,VALID,90.8218,VALID,0,VALID,24.4646,VALID,351,VALID,0.261328,
2008-03-28, 00:36:04,VALID,1004.27,VALID,0,VALID,90.3641,VALID,0,VALID,24.5425,VALID,18,VALID,0.587109,
2008-03-28, 00:37:04,VALID,1004.29,VALID,0,VALID,89.6546,VALID,0.100563,VALID,24.6185,VALID,29,VALID,1.33711,
2008-03-28, 00:38:04,VALID,1004.29,VALID,0,VALID,89.3037,VALID,0,VALID,24.7353,VALID,348,VALID,0.421484,
2008-03-28, 00:39:04,VALID,1004.29,VALID,0,VALID,89.0977,VALID,0,VALID,24.7956,VALID,11,VALID,0.576563,
2008-03-28, 00:40:04,VALID,1004.31,VALID,0,VALID,89.0824,VALID,0,VALID,24.7956,VALID,12,VALID,0.310156,
2008-03-28, 00:41:04,VALID,1004.31,VALID,0,VALID,89.0901,VALID,0,VALID,24.7761,VALID,12,VALID,0.271875,
2008-03-28, 00:42:04,VALID,1004.29,VALID,0,VALID,89.1358,VALID,0,VALID,24.7761,VALID,12,VALID,0.36875,
2008-03-28, 00:43:04,VALID,1004.3,VALID,0,VALID,89.2121,VALID,0,VALID,24.7761,VALID,12,VALID,0.265625,
2008-03-28, 00:44:04,VALID,1004.3,VALID,0,VALID,89.296,VALID,0,VALID,24.7567,VALID,12,VALID,0.183594,
2008-03-28, 00:45:04,VALID,1004.26,VALID,0,VALID,89.2045,VALID,0,VALID,24.7372,VALID,12,VALID,0.416016,
2008-03-28, 00:46:04,VALID,1004.24,VALID,0,VALID,89.2045,VALID,0,VALID,24.7372,VALID,9,VALID,0.305078,
2008-03-28, 00:47:04,VALID,1004.26,VALID,0,VALID,89.2884,VALID,0,VALID,24.7177,VALID,9,VALID,0.366016,
2008-03-28, 00:48:04,VALID,1004.21,VALID,0,VALID,89.2808,VALID,0,VALID,24.7196,VALID,354,VALID,0.425,
2008-03-28, 00:49:04,VALID,1004.24,VALID,0,VALID,89.4868,VALID,0,VALID,24.6788,VALID,354,VALID,0.481641,
2008-03-28, 00:50:04,VALID,1004.22,VALID,0,VALID,89.7843,VALID,0,VALID,24.6593,VALID,354,VALID,0.332812,
2008-03-28, 00:51:04,VALID,1004.22,VALID,0,VALID,90.0589,VALID,0,VALID,24.6204,VALID,354,VALID,0.203906,
2008-03-28, 00:52:04,VALID,1004.2,VALID,0,VALID,90.181,VALID,0,VALID,24.6028,VALID,354,VALID,0.253906,
2008-03-28, 00:53:04,VALID,1004.2,VALID,0,VALID,90.387,VALID,0.100563,VALID,24.5425,VALID,355,VALID,0.339453,
2008-03-28, 00:54:04,VALID,1004.17,VALID,0,VALID,90.6006,VALID,0,VALID,24.5035,VALID,356,VALID,0.366406,
2008-03-28, 00:55:04,VALID,1004.15,VALID,0,VALID,90.8523,VALID,0,VALID,24.4451,VALID,5,VALID,0.496094,
2008-03-28, 00:56:04,VALID,1004.15,VALID,0,VALID,91.1422,VALID,0,VALID,24.4062,VALID,6,VALID,0.436719,
2008-03-28, 00:57:04,VALID,1004.14,VALID,0,VALID,91.3253,VALID,0,VALID,24.4062,VALID,6,VALID,0.287109,
2008-03-28, 00:58:04,VALID,1004.15,VALID,0,VALID,91.4169,VALID,0,VALID,24.4257,VALID,21,VALID,0.245312,
2008-03-28, 00:59:04,VALID,1004.13,VALID,0,VALID,91.4321,VALID,0,VALID,24.4062,VALID,21,VALID,0.253906,
2008-03-28, 01:00:04,VALID,1004.14,VALID,0,VALID,91.5847,VALID,0,VALID,24.4257,VALID,352,VALID,0.450391,
2008-03-28, 01:01:04,VALID,1004.15,VALID,0,VALID,91.4703,VALID,0,VALID,24.4451,VALID,355,VALID,0.405859,
2008-03-28, 01:02:04,VALID,1004.16,VALID,0,VALID,91.5161,VALID,0,VALID,24.4451,VALID,354,VALID,0.459375,
2008-03-28, 01:03:04,VALID,1004.12,VALID,0,VALID,91.3711,VALID,0,VALID,24.5035,VALID,12,VALID,0.367969,
2008-03-28, 01:04:04,VALID,1004.11,VALID,0,VALID,91.1804,VALID,0,VALID,24.523,VALID,12,VALID,0.264453,
2008-03-28, 01:05:04,VALID,1004.09,VALID,0,VALID,91.0583,VALID,0,VALID,24.562,VALID,19,VALID,0.0953125,
2008-03-28, 01:06:04,VALID,1004.05,VALID,0,VALID,90.9515,VALID,0,VALID,24.5814,VALID,17,VALID,0.423438,
2008-03-28, 01:07:04,VALID,1004.05,VALID,0,VALID,90.8676,VALID,0,VALID,24.6009,VALID,18,VALID,0.0675781,
2008-03-28, 01:08:04,VALID,1004.04,VALID,0,VALID,90.776,VALID,0,VALID,24.6204,VALID,18,VALID,0.233203,
2008-03-28, 01:09:04,VALID,1004.04,VALID,0,VALID,90.7989,VALID,0,VALID,24.6807,VALID,17,VALID,0.658203,
2008-03-28, 01:10:04,VALID,1004.01,VALID,0,VALID,90.715,VALID,0,VALID,24.6788,VALID,16,VALID,0.506641,
2008-03-28, 01:11:04,VALID,1004.02,VALID,0,VALID,90.5701,VALID,0,VALID,24.6788,VALID,16,VALID,0.0660156,
2008-03-28, 01:12:04,VALID,1004.04,VALID,0,VALID,90.5243,VALID,0,VALID,24.6788,VALID,16,VALID,0,
2008-03-28, 01:13:04,VALID,1004.04,VALID,0,VALID,90.4251,VALID,0,VALID,24.7196,VALID,16,VALID,0.366406,
2008-03-28, 01:14:04,VALID,1004.02,VALID,0,VALID,90.3717,VALID,0,VALID,24.6983,VALID,16,VALID,0.165625,
2008-03-28, 01:15:04,VALID,1004.05,VALID,0,VALID,90.3183,VALID,0,VALID,24.7196,VALID,16,VALID,0.250391,
2008-03-28, 01:16:04,VALID,1004.05,VALID,0,VALID,90.4251,VALID,0,VALID,24.7196,VALID,17,VALID,0.25,
2008-03-28, 01:17:04,VALID,1004.04,VALID,0,VALID,90.4862,VALID,0,VALID,24.7001,VALID,17,VALID,0,
2008-03-28, 01:18:04,VALID,1004.04,VALID,0,VALID,90.4633,VALID,0,VALID,24.6788,VALID,17,VALID,0.232031,
2008-03-28, 01:19:04,VALID,1004.02,VALID,0,VALID,90.4327,VALID,0,VALID,24.6788,VALID,19,VALID,0.227344,
2008-03-28, 01:20:04,VALID,1004.02,VALID,0,VALID,90.4175,VALID,0,VALID,24.7196,VALID,19,VALID,0.0140625,
2008-03-28, 01:21:04,VALID,1003.97,VALID,0,VALID,90.3259,VALID,0,VALID,24.6983,VALID,19,VALID,0.507813,
2008-03-28, 01:22:04,VALID,1003.97,VALID,0,VALID,90.3336,VALID,0,VALID,24.6983,VALID,23,VALID,0.377734,
2008-03-28, 01:23:04,VALID,1003.92,VALID,0,VALID,90.2268,VALID,0,VALID,24.6983,VALID,23,VALID,0.223047,
2008-03-28, 01:24:04,VALID,1003.9,VALID,0,VALID,90.0589,VALID,0,VALID,24.7196,VALID,23,VALID,0.0683594,
2008-03-28, 01:25:04,VALID,1003.88,VALID,0,VALID,90.1352,VALID,0,VALID,24.7177,VALID,23,VALID,0,
2008-03-28, 01:26:04,VALID,1003.86,VALID,0,VALID,90.12,VALID,0,VALID,24.7001,VALID,23,VALID,0.224219,
2008-03-28, 01:27:04,VALID,1003.86,VALID,0,VALID,90.2115,VALID,0,VALID,24.7001,VALID,23,VALID,0.360156,
2008-03-28, 01:28:04,VALID,1003.86,VALID,0,VALID,90.3412,VALID,0,VALID,24.6398,VALID,23,VALID,0.297266,
2008-03-28, 01:29:04,VALID,1003.87,VALID,0,VALID,90.4862,VALID,0.100563,VALID,24.6009,VALID,23,VALID,0.345703,
2008-03-28, 01:30:04,VALID,1003.88,VALID,0,VALID,90.6845,VALID,0,VALID,24.562,VALID,23,VALID,0.400781,
2008-03-28, 01:31:04,VALID,1003.86,VALID,0,VALID,90.8981,VALID,0,VALID,24.5035,VALID,23,VALID,0.490625,
2008-03-28, 01:32:04,VALID,1003.88,VALID,0,VALID,91.127,VALID,0,VALID,24.4646,VALID,23,VALID,0.377734,
2008-03-28, 01:33:04,VALID,1003.87,VALID,0,VALID,91.3177,VALID,0,VALID,24.4257,VALID,23,VALID,0.275781,
2008-03-28, 01:34:04,VALID,1003.85,VALID,0,VALID,91.3711,VALID,0,VALID,24.408,VALID,23,VALID,0.245312,
2008-03-28, 01:35:04,VALID,1003.86,VALID,0,VALID,91.5313,VALID,0,VALID,24.3478,VALID,23,VALID,0.3375,
2008-03-28, 01:36:04,VALID,1003.81,VALID,0,VALID,91.6,VALID,0,VALID,24.3283,VALID,23,VALID,0.338281,
2008-03-28, 01:37:04,VALID,1003.79,VALID,0,VALID,91.8059,VALID,0,VALID,24.2894,VALID,17,VALID,0.330469,
2008-03-28, 01:38:04,VALID,1003.77,VALID,0,VALID,91.9051,VALID,0,VALID,24.3107,VALID,6,VALID,0.537891,
2008-03-28, 01:39:04,VALID,1003.79,VALID,0,VALID,92.0119,VALID,0,VALID,24.2894,VALID,3,VALID,0.585156,
2008-03-28, 01:40:04,VALID,1003.79,VALID,0,VALID,92.0424,VALID,0,VALID,24.2699,VALID,355,VALID,0.367578,
2008-03-28, 01:41:04,VALID,1003.79,VALID,0,VALID,92.0653,VALID,0,VALID,24.2504,VALID,355,VALID,0.21875,
2008-03-28, 01:42:04,VALID,1003.78,VALID,0,VALID,92.1264,VALID,0,VALID,24.231,VALID,355,VALID,0.346875,
2008-03-28, 01:43:04,VALID,1003.77,VALID,0,VALID,92.1645,VALID,0.100563,VALID,24.2523,VALID,355,VALID,0.183984,
2008-03-28, 01:44:04,VALID,1003.81,VALID,0,VALID,92.1645,VALID,0,VALID,24.2097,VALID,7,VALID,0.495703,
2008-03-28, 01:45:04,VALID,1003.77,VALID,0,VALID,92.1264,VALID,0,VALID,24.231,VALID,24,VALID,0.443359,
2008-03-28, 01:46:04,VALID,1003.76,VALID,0,VALID,92.1416,VALID,0,VALID,24.231,VALID,24,VALID,0.284766,
2008-03-28, 01:47:04,VALID,1003.72,VALID,0,VALID,92.1721,VALID,0,VALID,24.192,VALID,24,VALID,0.576953,
2008-03-28, 01:48:04,VALID,1003.73,VALID,0,VALID,92.2408,VALID,0,VALID,24.1531,VALID,24,VALID,0.485938,
2008-03-28, 01:49:04,VALID,1003.68,VALID,0,VALID,92.3247,VALID,0,VALID,24.1531,VALID,24,VALID,0.369531,
2008-03-28, 01:50:04,VALID,1003.69,VALID,0,VALID,92.4086,VALID,0.100563,VALID,24.1336,VALID,24,VALID,0.393359,
2008-03-28, 01:51:04,VALID,1003.64,VALID,0,VALID,92.5078,VALID,0,VALID,24.116,VALID,24,VALID,0.285156,
2008-03-28, 01:52:04,VALID,1003.63,VALID,0,VALID,92.5307,VALID,0,VALID,24.0947,VALID,24,VALID,0.25,
2008-03-28, 01:53:04,VALID,1003.6,VALID,0,VALID,92.5383,VALID,0.100563,VALID,24.1142,VALID,24,VALID,0.21875,
2008-03-28, 01:54:04,VALID,1003.58,VALID,0,VALID,92.5993,VALID,0.100563,VALID,24.0752,VALID,23,VALID,0.521875,
2008-03-28, 01:55:04,VALID,1003.57,VALID,0,VALID,92.5993,VALID,0,VALID,24.0947,VALID,28,VALID,0.178516,
2008-03-28, 01:56:04,VALID,1003.52,VALID,0,VALID,92.5993,VALID,0,VALID,24.1142,VALID,28,VALID,0.0433594,
2008-03-28, 01:57:04,VALID,1003.54,VALID,0,VALID,92.6375,VALID,0.100563,VALID,24.0929,VALID,27,VALID,0.319531,
2008-03-28, 01:58:04,VALID,1003.51,VALID,0,VALID,92.5688,VALID,0,VALID,24.1336,VALID,26,VALID,0.317187,
2008-03-28, 01:59:04,VALID,1003.51,VALID,0,VALID,92.3781,VALID,0,VALID,24.1531,VALID,13,VALID,0.298047,
2008-03-28, 02:00:04,VALID,1003.53,VALID,0,VALID,92.4773,VALID,0.100563,VALID,24.1531,VALID,13,VALID,0.206641,
2008-03-28, 02:01:04,VALID,1003.54,VALID,0,VALID,92.4163,VALID,0.100563,VALID,24.1531,VALID,13,VALID,0.530859,
2008-03-28, 02:02:04,VALID,1003.54,VALID,0,VALID,92.4925,VALID,0.100563,VALID,24.0929,VALID,13,VALID,0.337109,
2008-03-28, 02:03:04,VALID,1003.54,VALID,0,VALID,92.668,VALID,0,VALID,24.0947,VALID,12,VALID,0.359375,
2008-03-28, 02:04:04,VALID,1003.56,VALID,0,VALID,92.6604,VALID,0,VALID,24.0539,VALID,12,VALID,0.403516,
2008-03-28, 02:05:04,VALID,1003.54,VALID,0,VALID,92.8435,VALID,0.100563,VALID,24.0345,VALID,12,VALID,0.304688,
2008-03-28, 02:06:04,VALID,1003.52,VALID,0,VALID,93.08,VALID,0,VALID,24.0363,VALID,12,VALID,0.305469,
2008-03-28, 02:07:04,VALID,1003.5,VALID,0,VALID,93.0266,VALID,0,VALID,24.0168,VALID,12,VALID,0.273828,
2008-03-28, 02:08:04,VALID,1003.5,VALID,0,VALID,93.1105,VALID,0.100563,VALID,24.0168,VALID,12,VALID,0.329688,
2008-03-28, 02:09:04,VALID,1003.49,VALID,0,VALID,93.1791,VALID,0.100563,VALID,23.9761,VALID,12,VALID,0.261328,
2008-03-28, 02:10:04,VALID,1003.46,VALID,0,VALID,93.3241,VALID,0.100563,VALID,23.9761,VALID,12,VALID,0.394141,
2008-03-28, 02:11:04,VALID,1003.45,VALID,0,VALID,93.3622,VALID,0.100563,VALID,23.9779,VALID,12,VALID,0.166406,
2008-03-28, 02:12:04,VALID,1003.42,VALID,0,VALID,93.2783,VALID,0.100563,VALID,23.9761,VALID,10,VALID,0.0242187,
2008-03-28, 02:13:04,VALID,1003.4,VALID,0,VALID,93.3775,VALID,0.100563,VALID,23.9761,VALID,332,VALID,0.726953,
2008-03-28, 02:14:04,VALID,1003.41,VALID,0,VALID,93.1486,VALID,0.100563,VALID,24.0557,VALID,335,VALID,0.325391,
2008-03-28, 02:15:04,VALID,1003.38,VALID,0,VALID,92.9121,VALID,0.100563,VALID,24.0345,VALID,335,VALID,0.307813,
2008-03-28, 02:16:04,VALID,1003.4,VALID,0,VALID,92.9579,VALID,0.100563,VALID,24.0363,VALID,335,VALID,0.370313,
2008-03-28, 02:17:04,VALID,1003.41,VALID,0,VALID,92.8511,VALID,0,VALID,24.0168,VALID,336,VALID,0.398828,
2008-03-28, 02:18:04,VALID,1003.41,VALID,0,VALID,92.8892,VALID,0.100563,VALID,23.9779,VALID,336,VALID,0.253125,
2008-03-28, 02:19:04,VALID,1003.37,VALID,0,VALID,92.9655,VALID,0.100563,VALID,23.9584,VALID,344,VALID,0.351563,
2008-03-28, 02:20:04,VALID,1003.38,VALID,0,VALID,93.0723,VALID,0,VALID,23.9195,VALID,344,VALID,0.320313,
2008-03-28, 02:21:04,VALID,1003.36,VALID,0,VALID,93.2249,VALID,0.100563,VALID,23.8787,VALID,359,VALID,0.367969,
2008-03-28, 02:22:04,VALID,1003.36,VALID,0,VALID,93.3699,VALID,0.100563,VALID,23.9195,VALID,360,VALID,0.664063,
2008-03-28, 02:23:04,VALID,1003.33,VALID,0,VALID,93.3088,VALID,0,VALID,23.9195,VALID,356,VALID,0.114063,
2008-03-28, 02:24:04,VALID,1003.35,VALID,0,VALID,93.408,VALID,0,VALID,23.9389,VALID,10,VALID,0.714844,
2008-03-28, 02:25:04,VALID,1003.31,VALID,0,VALID,93.3546,VALID,0,VALID,24.0168,VALID,28,VALID,0.74375,
2008-03-28, 02:26:04,VALID,1003.32,VALID,0,VALID,92.9579,VALID,0.100563,VALID,24.0947,VALID,31,VALID,0.728906,
2008-03-28, 02:27:04,VALID,1003.3,VALID,0,VALID,92.6909,VALID,0.100563,VALID,24.2115,VALID,360,VALID,0.966797,
2008-03-28, 02:28:04,VALID,1003.32,VALID,0,VALID,92.2027,VALID,0,VALID,24.3283,VALID,7,VALID,1.28086,
2008-03-28, 02:29:04,VALID,1003.3,VALID,0,VALID,91.455,VALID,0,VALID,24.4841,VALID,19,VALID,0.846875,
2008-03-28, 02:30:04,VALID,1003.3,VALID,0,VALID,90.9057,VALID,0,VALID,24.6009,VALID,36,VALID,0.75,
2008-03-28, 02:31:05,VALID,1003.31,VALID,0,VALID,90.2649,VALID,0.100563,VALID,24.6983,VALID,6,VALID,0.592578,
2008-03-28, 02:32:05,VALID,1003.27,VALID,0,VALID,89.8224,VALID,0.100563,VALID,24.7567,VALID,348,VALID,0.641406,
2008-03-28, 02:33:05,VALID,1003.28,VALID,0,VALID,89.5859,VALID,0,VALID,24.7956,VALID,9,VALID,0.382031,
2008-03-28, 02:34:05,VALID,1003.26,VALID,0,VALID,89.3494,VALID,0.100563,VALID,24.8132,VALID,348,VALID,0.724609,
2008-03-28, 02:35:05,VALID,1003.23,VALID,0,VALID,89.1358,VALID,0.100563,VALID,24.854,VALID,41,VALID,0.409766,
2008-03-28, 02:36:05,VALID,1003.23,VALID,0,VALID,88.8765,VALID,0,VALID,24.9125,VALID,23,VALID,1.54258,
2008-03-28, 02:37:05,VALID,1003.23,VALID,0,VALID,88.7239,VALID,0.100563,VALID,24.9514,VALID,10,VALID,0.366797,
2008-03-28, 02:38:05,VALID,1003.25,VALID,0,VALID,88.6018,VALID,0,VALID,24.9709,VALID,7,VALID,0.812891,
2008-03-28, 02:39:05,VALID,1003.24,VALID,0,VALID,88.5789,VALID,0,VALID,24.9514,VALID,307,VALID,0.648438,
2008-03-28, 02:40:05,VALID,1003.22,VALID,0,VALID,88.6934,VALID,0.100563,VALID,24.9319,VALID,293,VALID,0.245312,
2008-03-28, 02:41:05,VALID,1003.22,VALID,0,VALID,88.7391,VALID,0.100563,VALID,24.893,VALID,24,VALID,0.592578,
2008-03-28, 02:42:05,VALID,1003.23,VALID,0,VALID,88.8078,VALID,0,VALID,24.8735,VALID,35,VALID,0.639844,
2008-03-28, 02:43:05,VALID,1003.25,VALID,0,VALID,88.9527,VALID,0.100563,VALID,24.8346,VALID,12,VALID,0.545313,
2008-03-28, 02:44:05,VALID,1003.3,VALID,0,VALID,89.1358,VALID,0.100563,VALID,24.8151,VALID,17,VALID,0.447266,
2008-03-28, 02:45:05,VALID,1003.31,VALID,0,VALID,89.3189,VALID,0,VALID,24.7761,VALID,13,VALID,0.164063,
2008-03-28, 02:46:05,VALID,1003.33,VALID,0,VALID,89.4715,VALID,0.100563,VALID,24.7159,VALID,343,VALID,0.488281,
2008-03-28, 02:47:05,VALID,1003.39,VALID,0,VALID,89.7309,VALID,0.100563,VALID,24.6807,VALID,16,VALID,0.745703,
2008-03-28, 02:48:05,VALID,1003.39,VALID,0,VALID,89.9216,VALID,0,VALID,24.6204,VALID,15,VALID,0.219531,
2008-03-28, 02:49:05,VALID,1003.4,VALID,0,VALID,90.0589,VALID,0,VALID,24.6009,VALID,357,VALID,0.619922,
2008-03-28, 02:50:05,VALID,1003.42,VALID,0,VALID,90.0284,VALID,0.100563,VALID,24.6398,VALID,9,VALID,0.625781,
2008-03-28, 02:51:05,VALID,1003.43,VALID,0,VALID,89.9064,VALID,0.100563,VALID,24.6593,VALID,6,VALID,0.801172,
2008-03-28, 02:52:05,VALID,1003.42,VALID,0,VALID,89.7156,VALID,0.100563,VALID,24.6788,VALID,336,VALID,0.591016,
2008-03-28, 02:53:05,VALID,1003.44,VALID,0,VALID,89.6012,VALID,0,VALID,24.6983,VALID,330,VALID,0.478906,
2008-03-28, 02:54:05,VALID,1003.45,VALID,0,VALID,89.6317,VALID,0,VALID,24.7177,VALID,10,VALID,0.4625,
2008-03-28, 02:55:05,VALID,1003.47,VALID,0,VALID,89.6012,VALID,0,VALID,24.7391,VALID,2,VALID,0.0835937,
2008-03-28, 02:56:05,VALID,1003.49,VALID,0,VALID,89.6088,VALID,0,VALID,24.7196,VALID,2,VALID,0.207813,
2008-03-28, 02:57:05,VALID,1003.51,VALID,0,VALID,89.5859,VALID,0,VALID,24.6983,VALID,340,VALID,0.339844,
2008-03-28, 02:58:05,VALID,1003.51,VALID,0,VALID,89.6317,VALID,0,VALID,24.6983,VALID,341,VALID,0.554688,
2008-03-28, 02:59:05,VALID,1003.52,VALID,0,VALID,89.6165,VALID,0,VALID,24.6983,VALID,285,VALID,0.321484,
2008-03-28, 03:00:05,VALID,1003.54,VALID,0,VALID,89.5554,VALID,0,VALID,24.6983,VALID,342,VALID,0.441797,
2008-03-28, 03:01:05,VALID,1003.55,VALID,0,VALID,89.502,VALID,0,VALID,24.6983,VALID,347,VALID,0.421094,
2008-03-28, 03:02:05,VALID,1003.54,VALID,0,VALID,89.4715,VALID,0,VALID,24.7177,VALID,350,VALID,0.162109,
2008-03-28, 03:03:05,VALID,1003.57,VALID,0,VALID,89.4715,VALID,0,VALID,24.6983,VALID,349,VALID,0.205078,
2008-03-28, 03:04:05,VALID,1003.6,VALID,0,VALID,89.5325,VALID,0,VALID,24.7001,VALID,348,VALID,0.1625,
2008-03-28, 03:05:05,VALID,1003.61,VALID,0,VALID,89.6012,VALID,0,VALID,24.6593,VALID,343,VALID,0.413672,
2008-03-28, 03:06:05,VALID,1003.6,VALID,0,VALID,89.6317,VALID,0,VALID,24.6593,VALID,349,VALID,0.455859,
2008-03-28, 03:07:05,VALID,1003.63,VALID,0,VALID,89.6927,VALID,0,VALID,24.6593,VALID,349,VALID,0.456641,
2008-03-28, 03:08:05,VALID,1003.64,VALID,0,VALID,89.7156,VALID,0,VALID,24.6807,VALID,354,VALID,0.810547,
2008-03-28, 03:09:05,VALID,1003.65,VALID,0,VALID,89.6317,VALID,0,VALID,24.7001,VALID,358,VALID,0.673047,
2008-03-28, 03:10:05,VALID,1003.59,VALID,0,VALID,89.6241,VALID,0,VALID,24.6788,VALID,335,VALID,0.542969,
2008-03-28, 03:11:05,VALID,1003.6,VALID,0,VALID,89.6088,VALID,0,VALID,24.6983,VALID,346,VALID,0.655469,
2008-03-28, 03:12:05,VALID,1003.59,VALID,0,VALID,89.5173,VALID,0,VALID,24.6983,VALID,344,VALID,0.720703,
2008-03-28, 03:13:05,VALID,1003.56,VALID,0,VALID,89.5554,VALID,0,VALID,24.6983,VALID,312,VALID,0.532031,
2008-03-28, 03:14:05,VALID,1003.52,VALID,0,VALID,89.5707,VALID,0,VALID,24.6983,VALID,349,VALID,0.661328,
2008-03-28, 03:15:05,VALID,1003.53,VALID,0,VALID,89.6088,VALID,0,VALID,24.7001,VALID,351,VALID,0.475781,
2008-03-28, 03:16:05,VALID,1003.54,VALID,0,VALID,89.6927,VALID,0,VALID,24.6593,VALID,338,VALID,0.783984,
2008-03-28, 03:17:05,VALID,1003.52,VALID,0,VALID,89.6927,VALID,0,VALID,24.6807,VALID,256,VALID,0.646094,
2008-03-28, 03:18:05,VALID,1003.53,VALID,0,VALID,89.6546,VALID,0,VALID,24.6807,VALID,356,VALID,0.827344,
2008-03-28, 03:19:05,VALID,1003.54,VALID,0,VALID,89.5936,VALID,0,VALID,24.6807,VALID,343,VALID,0.791797,
2008-03-28, 03:20:05,VALID,1003.51,VALID,0,VALID,89.5097,VALID,0,VALID,24.6788,VALID,328,VALID,0.533594,
2008-03-28, 03:21:05,VALID,1003.54,VALID,0,VALID,89.4334,VALID,0,VALID,24.7391,VALID,341,VALID,0.523828,
2008-03-28, 03:22:05,VALID,1003.54,VALID,0,VALID,89.2274,VALID,0,VALID,24.7586,VALID,324,VALID,1.32344,
2008-03-28, 03:23:05,VALID,1003.56,VALID,0,VALID,89.0595,VALID,0,VALID,24.7975,VALID,1,VALID,0.344531,
2008-03-28, 03:24:05,VALID,1003.55,VALID,0,VALID,88.8078,VALID,0,VALID,24.7956,VALID,339,VALID,0.717578,
2008-03-28, 03:25:05,VALID,1003.58,VALID,0,VALID,88.6934,VALID,0,VALID,24.8151,VALID,359,VALID,0.754687,
2008-03-28, 03:26:05,VALID,1003.59,VALID,0,VALID,88.5866,VALID,0,VALID,24.8364,VALID,354,VALID,0.856641,
2008-03-28, 03:27:05,VALID,1003.59,VALID,0,VALID,88.4111,VALID,0,VALID,24.8346,VALID,357,VALID,0.677344,
2008-03-28, 03:28:05,VALID,1003.56,VALID,0,VALID,88.3043,VALID,0,VALID,24.8949,VALID,360,VALID,0.411719,
2008-03-28, 03:29:05,VALID,1003.59,VALID,0,VALID,88.1746,VALID,0,VALID,24.8735,VALID,360,VALID,0.467578,
2008-03-28, 03:30:05,VALID,1003.57,VALID,0,VALID,88.2127,VALID,0,VALID,24.893,VALID,360,VALID,0.444141,
2008-03-28, 03:31:05,VALID,1003.6,VALID,0,VALID,88.3272,VALID,0,VALID,24.8754,VALID,360,VALID,0.298047,
2008-03-28, 03:32:05,VALID,1003.57,VALID,0,VALID,88.3119,VALID,0,VALID,24.7956,VALID,1,VALID,0.4625,
2008-03-28, 03:33:05,VALID,1003.56,VALID,0,VALID,88.228,VALID,0,VALID,24.7567,VALID,12,VALID,0.417578,
2008-03-28, 03:34:05,VALID,1003.56,VALID,0,VALID,88.0983,VALID,0,VALID,24.7372,VALID,354,VALID,0.543359,
2008-03-28, 03:35:05,VALID,1003.58,VALID,0,VALID,88.0525,VALID,0,VALID,24.7177,VALID,354,VALID,0.564453,
2008-03-28, 03:36:05,VALID,1003.56,VALID,0,VALID,88.1288,VALID,0,VALID,24.6983,VALID,344,VALID,0.563672,
2008-03-28, 03:37:05,VALID,1003.56,VALID,0,VALID,87.9228,VALID,0,VALID,24.6983,VALID,354,VALID,1.15898,
2008-03-28, 03:38:05,VALID,1003.57,VALID,0,VALID,87.816,VALID,0,VALID,24.7372,VALID,356,VALID,0.600781,
2008-03-28, 03:39:05,VALID,1003.55,VALID,0,VALID,87.8084,VALID,0,VALID,24.7372,VALID,360,VALID,0.638281,
2008-03-28, 03:40:05,VALID,1003.56,VALID,0,VALID,87.3736,VALID,0,VALID,24.7567,VALID,350,VALID,0.729297,
2008-03-28, 03:41:05,VALID,1003.55,VALID,0,VALID,87.1676,VALID,0,VALID,24.778,VALID,350,VALID,0.589453,
2008-03-28, 03:42:05,VALID,1003.53,VALID,0,VALID,87.0455,VALID,0,VALID,24.7372,VALID,34,VALID,0.640234,
2008-03-28, 03:43:05,VALID,1003.54,VALID,0,VALID,87.0913,VALID,0,VALID,24.7372,VALID,19,VALID,0.310547,
2008-03-28, 03:44:05,VALID,1003.52,VALID,0,VALID,86.9082,VALID,0,VALID,24.7177,VALID,10,VALID,0.419531,